Location: Étouvelles
(49.5207°N, 3.5808°E)
Time: 14:54:37
(UTC+00:00)

YAOGAN 1 - Pass Details

Date: 03 February 2023
Orbit: 616 x 618 km, 97.8° (Epoch: 25 March)

Event Time Altitude Azimuth Distance (km) Brightness Sun altitude
Rises 18:05:51 0° 154° (SSE) 2,882 5.8 -13.4°
Reaches altitude 10° 18:08:02 10° 151° (SSE) 1,982 5.0 -13.8°
Maximum altitude 18:12:17 60° 72° (ENE) 716 2.5 -14.5°
Drops below altitude 10° 18:16:33 10° 353° (N) 1,998 5.2 -15.2°
Sets 18:18:46 0° 350° (N) 2,909 6.1 -15.5°
